Regional Weather Roundup
Issued by NWS

Home | Current Version | Previous Version | Text Only | Print | Product List | Glossary Off
Versions: 1 2 3 4 5 6 7 8 9 10 11 12 13 14 15 16 17 18 19 20 21 22 23 24 25 26 27 28

000
ASUS45 KCYS 240510
RWRWY

WYOMING REGIONAL WEATHER ROUNDUP
NATIONAL WEATHER SERVICE CHEYENNE WY
1100 PM MDT THU OCT 23 2014

NOTE:  "FAIR" INDICATES FEW OR NO CLOUDS BELOW 12,000 FEET
WITH NO SIGNIFICANT WEATHER AND/OR OBSTRUCTIONS TO VISIBILITY.

WYZ001-240600-
YELLOWSTONE NATIONAL PARK

CITY           SKY/WX    TMP DP  RH WIND       PRES   REMARKS
LK YELLOWSTONE   N/A     42  29  59 CALM      30.19
W YELLOWSTONE  NOT AVBL

$$
WYZ002>013-054>058-071-098>099-240600-
NORTHERN WYOMING

CITY           SKY/WX    TMP DP  RH WIND       PRES   REMARKS
JACKSON        CLOUDY    50  27  40 S9        30.13S
CODY           CLOUDY    57  25  28 CALM      29.98
GREYBULL       CLOUDY    52  26  36 E8        29.93F
WORLAND        CLOUDY    47  27  45 VRB5      29.95S
SHERIDAN       CLOUDY    46  32  58 E6        29.92R
BUFFALO        CLOUDY    53  25  33 NW5       29.96S
GILLETTE       CLOUDY    48  29  47 CALM      29.93F
HULETT         FAIR      45  30  57 S6        29.95
NEWCASTLE      FAIR      45  28  53 E3        29.97

$$
WYZ014>020-022>026-101>103-240600-
CENTRAL WYOMING

CITY           SKY/WX    TMP DP  RH WIND       PRES   REMARKS
BIG PINEY      MOCLDY    36  23  59 N5        30.20R WCI  32
PINEDALE       MOCLDY    36  28  75 CALM      30.21
DUBOIS         FAIR      50  19  29 NW18G30   30.10S
LANDER         MOCLDY    53  22  29 CALM      30.03R
RIVERTON       MOCLDY    52  24  33 CALM      30.04R
CASPER         CLOUDY    56  27  32 SW15      30.02F
DOUGLAS        CLOUDY    56  29  35 NW5       30.03R

$$
WYZ021-027>030-104>119-240600-
SOUTHERN WYOMING

CITY           SKY/WX    TMP DP  RH WIND       PRES   REMARKS
EVANSTON       PTCLDY    53  23  31 SW13      30.19S
KEMMERER       MOCLDY    45  23  42 CALM      30.20S
FORT BRIDGER   FAIR      50  22  34 SW10      30.22S
ROCK SPRINGS   MOCLDY    50  24  36 S5        30.19R
DIXON          FAIR      40  35  79 CALM      30.25S
RAWLINS        PTCLDY    51  29  42 W13       30.18S
SARATOGA       FAIR      48  32  53 S10       30.22S
LARAMIE        PTCLDY    46  29  51 S6        30.20S
CHEYENNE       MOCLDY    55  30  38 CALM      30.14F
TORRINGTON     MOCLDY    51  31  46 SE5       30.01F
PINE BLUFFS    FAIR      43  34  70 CALM      30.11S

$$



USA.gov is the U.S. government's official web portal to all federal, state and local government web resources and services.